Temp
12 12 12 12 12 13 13 14 14 14 14 15 15 16 16 17 18 19 17 18 18 18 18 19 20 22 22 23 24 24 24 25 27 28 26 26 27 25 25 25 25 25 24 22 22
12 12 12 12 12 12 13 13 14 14 14 14 15 15 16 16 18 17 18 17 17 17 17 19 20 21 22 24 24 25 25 26 26 26 26 26 26 26 25 26 25 24 23 22 21
11 11 11 11 12 12 12 13 13 13 14 14 15 15 15 16 17 17 18 17 17 17 16 18 19 20 22 24 25 25 24 26 26 23 24 25 25 25 25 25 24 23 22 21 20
11 11 11 11 11 12 12 13 13 13 14 14 14 15 15 16 19 17 17 17 17 17 16 18 20 21 23 24 25 24 25 25 25 23 23 24 24 24 24 24 22 22 20 19 19
11 11 11 11 11 12 12 12 12 13 13 14 14 14 15 15 17 16 17 16 17 16 17 18 20 21 23 24 25 24 24 25 23 23 22 22 23 23 24 23 21 21 19 18 18
10 10 11 11 11 11 12 12 12 13 13 13 13 13 12 15 16 15 15 15 16 17 18 19 20 20 20 22 23 24 23 23 23 23 23 23 23 23 24 23 22 21 19 16 16
9 10 10 10 11 11 12 12 12 12 13 12 12 12 11 14 16 15 15 15 16 16 18 19 18 19 20 22 22 22 21 22 23 23 23 23 22 22 24 22 21 21 19 16 15
9 9 9 10 10 10 11 11 11 12 12 12 12 12 12 15 15 15 15 15 15 15 16 16 16 17 18 20 21 21 22 21 25 25 23 22 21 25 23 22 21 22 19 16 14
8 9 9 9 10 10 10 11 11 11 12 12 11 10 13 15 15 15 14 16 16 15 15 16 16 17 20 19 20 22 21 23 24 24 23 22 22 25 23 22 22 21 21 17 14
7 8 8 9 9 10 10 10 11 11 11 11 9 11 13 16 16 15 15 15 16 16 16 15 17 19 19 20 19 22 23 23 23 23 23 22 22 23 23 23 23 22 21 17 15
6 6 7 8 9 9 9 9 10 8 9 13 15 14 16 15 14 15 15 15 16 16 17 18 18 18 21 22 23 23 22 21 23 24 23 23 23 22 23 23 23 22 21 17 14
6 6 6 7 8 8 9 9 11 8 11 13 14 14 15 15 14 16 16 16 17 17 18 19 18 20 22 22 21 20 20 20 22 23 22 22 21 22 22 22 23 22 20 16 13
4 5 6 7 7 8 8 9 8 8 10 13 14 15 15 15 14 15 17 16 17 18 18 19 21 21 20 20 20 19 19 19 20 21 21 20 20 21 22 22 21 18 18 16 13
4 4 4 5 7 7 8 8 8 7 11 16 15 15 14 14 14 15 17 17 17 17 18 19 21 21 20 18 19 18 20 20 19 18 17 20 18 20 22 21 18 17 17 16 14
3 4 4 5 5 7 6 6 7 8 11 17 15 13 14 14 15 15 16 16 16 18 18 18 19 18 18 19 20 18 20 18 18 17 17 18 17 19 21 22 18 17 15 15 14
3 2 3 4 6 5 6 7 7 9 10 16 15 14 14 14 15 14 14 14 16 16 18 18 19 19 18 19 19 19 17 17 17 16 15 17 18 19 20 21 20 18 16 15 13
3 3 2 3 5 5 6 6 9 10 17 16 15 16 15 15 15 15 15 14 15 14 15 17 18 18 18 17 18 17 16 14 15 15 15 19 19 20 21 21 20 17 16 14 13
3 3 3 3 3 4 4 7 8 13 13 17 16 17 15 17 16 16 16 15 16 17 17 16 16 18 18 17 17 17 17 15 13 15 16 19 17 18 21 20 19 18 17 14 13
2 2 2 3 3 3 5 5 9 12 16 15 16 15 16 17 17 17 16 16 18 17 16 17 18 20 19 18 18 17 16 18 16 16 14 16 18 20 20 20 18 17 17 15 13
2 2 2 2 3 3 5 7 10 13 15 14 14 15 15 16 15 15 15 17 17 17 18 17 16 18 18 18 18 17 18 14 14 11 12 15 16 17 15 16 16 16 16 15 13
1 1 2 2 3 3 4 7 10 12 12 12 12 13 14 14 15 15 16 15 15 15 16 16 15 16 17 13 15 16 16 15 15 14 12 12 14 14 13 15 14 12 10 10 12
1 2 2 2 3 4 4 8 10 11 11 12 11 11 11 12 12 12 13 11 13 13 13 14 14 13 15 17 17 16 14 15 11 11 10 9 9 14 14 14 11 12 12 12 10
1 1 2 2 3 3 5 8 9 10 11 11 10 11 12 12 11 12 13 12 12 12 12 12 12 11 12 14 16 15 15 15 15 14 12 11 12 16 16 14 12 9 10 11 9
0 1 1 2 4 6 6 7 8 9 11 10 11 11 11 11 12 11 12 12 11 12 9 10 11 11 11 12 13 12 14 14 14 10 11 11 12 13 13 14 12 12 12 10 8
-0 1 2 1 2 6 7 8 8 9 10 10 10 10 10 9 10 10 11 12 12 11 10 11 9 11 11 12 13 13 13 14 13 13 11 12 13 14 15 15 13 12 11 8 7
-1 1 4 6 4 6 7 8 9 9 10 9 9 10 10 10 10 10 11 12 11 12 11 11 9 10 9 11 12 11 12 13 13 14 14 14 14 16 16 16 14 12 12 9 6
-0 1 3 5 5 5 6 8 9 10 10 11 10 10 10 10 8 9 9 9 10 10 9 9 7 8 8 10 10 8 10 12 13 14 14 11 14 15 14 13 12 10 10 8 5
Height
1537 1536 1536 1536 1535 1535 1534 1533 1531 1529 1528 1526 1524 1521 1518 1515 1513 1511 1511 1512 1510 1508 1507 1506 1504 1503 1504 1500 1499 1498 1499 1491 1476 1468 1478 1482 1483 1488 1493 1495 1497 1499 1500 1505 1508
1533 1533 1534 1534 1533 1533 1532 1531 1529 1528 1526 1525 1523 1520 1517 1513 1510 1508 1508 1508 1509 1507 1507 1508 1504 1504 1500 1496 1495 1496 1492 1483 1482 1482 1482 1484 1486 1487 1492 1491 1495 1499 1502 1504 1508
1530 1531 1530 1532 1531 1531 1530 1528 1527 1525 1524 1523 1521 1518 1515 1512 1508 1506 1507 1508 1509 1507 1507 1508 1505 1505 1500 1495 1492 1492 1491 1481 1483 1489 1490 1487 1488 1491 1493 1493 1494 1498 1502 1505 1507
1527 1528 1528 1529 1529 1528 1528 1526 1524 1523 1522 1520 1519 1516 1514 1513 1510 1506 1507 1507 1506 1506 1505 1507 1505 1501 1497 1492 1488 1490 1488 1484 1488 1490 1492 1489 1490 1491 1493 1495 1498 1500 1503 1507 1509
1524 1524 1525 1526 1525 1526 1525 1524 1522 1521 1520 1519 1517 1516 1513 1513 1509 1503 1504 1505 1505 1505 1506 1506 1505 1499 1494 1489 1489 1489 1488 1486 1489 1491 1492 1492 1491 1493 1492 1494 1498 1500 1504 1507 1509
1521 1519 1521 1522 1521 1522 1521 1522 1520 1519 1518 1516 1516 1514 1513 1512 1506 1505 1502 1504 1505 1507 1505 1505 1503 1500 1496 1494 1494 1488 1488 1488 1488 1488 1488 1490 1488 1488 1487 1490 1496 1500 1501 1506 1509
1517 1516 1516 1518 1519 1518 1518 1520 1518 1517 1516 1515 1514 1511 1509 1505 1504 1504 1504 1502 1504 1504 1505 1504 1503 1502 1497 1495 1493 1491 1493 1488 1483 1484 1485 1486 1487 1481 1482 1486 1494 1496 1498 1504 1507
1511 1512 1515 1515 1516 1516 1514 1516 1516 1514 1513 1513 1513 1509 1504 1500 1500 1500 1502 1500 1501 1501 1504 1504 1504 1502 1498 1496 1492 1491 1488 1488 1470 1469 1481 1489 1488 1470 1478 1483 1490 1492 1495 1501 1506
1508 1507 1511 1515 1513 1513 1512 1513 1513 1512 1510 1511 1511 1509 1501 1495 1497 1499 1499 1498 1498 1499 1501 1503 1503 1500 1495 1495 1493 1481 1484 1473 1469 1468 1474 1483 1483 1474 1479 1484 1485 1488 1491 1496 1503
1505 1507 1507 1510 1512 1510 1512 1511 1510 1507 1508 1507 1507 1511 1496 1494 1494 1497 1498 1496 1497 1498 1501 1501 1499 1495 1492 1490 1495 1477 1472 1466 1467 1469 1473 1476 1478 1476 1477 1478 1478 1481 1487 1491 1499
1503 1505 1505 1507 1509 1509 1510 1511 1510 1508 1505 1498 1497 1494 1492 1492 1492 1493 1494 1494 1495 1498 1496 1493 1494 1491 1482 1475 1473 1470 1473 1476 1468 1462 1466 1467 1469 1471 1475 1475 1473 1475 1481 1484 1497
1501 1502 1503 1505 1507 1508 1508 1510 1509 1509 1501 1494 1491 1490 1490 1490 1491 1491 1493 1493 1491 1491 1490 1488 1487 1480 1476 1474 1477 1480 1479 1478 1470 1467 1468 1469 1467 1470 1470 1468 1469 1470 1476 1483 1492
1497 1499 1501 1505 1507 1507 1507 1511 1506 1507 1501 1483 1479 1478 1484 1488 1484 1483 1488 1488 1486 1486 1486 1482 1472 1469 1476 1475 1479 1481 1481 1477 1474 1467 1467 1471 1467 1464 1458 1459 1464 1472 1478 1482 1489
1498 1498 1501 1503 1507 1507 1510 1510 1505 1506 1497 1469 1471 1471 1476 1483 1479 1477 1478 1484 1482 1480 1480 1476 1472 1467 1470 1479 1481 1483 1471 1469 1472 1477 1482 1468 1471 1458 1453 1455 1464 1471 1476 1481 1488
1499 1497 1500 1499 1501 1508 1509 1505 1503 1506 1498 1459 1467 1472 1472 1475 1473 1473 1475 1478 1477 1474 1479 1472 1470 1472 1474 1472 1473 1476 1472 1478 1478 1478 1478 1472 1478 1449 1449 1443 1456 1468 1477 1482 1488
1496 1498 1498 1498 1499 1502 1504 1505 1507 1506 1487 1457 1461 1468 1472 1472 1469 1472 1478 1479 1477 1478 1472 1472 1469 1468 1469 1468 1469 1474 1480 1478 1479 1480 1485 1471 1468 1451 1447 1439 1441 1460 1472 1479 1484
1494 1496 1496 1496 1501 1500 1503 1507 1507 1494 1456 1453 1456 1458 1464 1464 1466 1467 1471 1476 1473 1479 1475 1470 1466 1467 1470 1470 1472 1478 1481 1488 1483 1479 1475 1453 1449 1441 1437 1437 1443 1457 1467 1475 1480
1491 1494 1494 1495 1496 1499 1503 1507 1499 1464 1465 1453 1452 1452 1457 1454 1459 1462 1462 1467 1466 1460 1459 1466 1468 1459 1460 1465 1467 1470 1471 1482 1487 1478 1468 1452 1459 1449 1438 1440 1443 1452 1458 1468 1477
1487 1491 1493 1493 1493 1497 1505 1500 1474 1469 1454 1454 1451 1456 1453 1449 1450 1453 1456 1457 1453 1456 1461 1456 1451 1446 1449 1457 1464 1464 1467 1461 1469 1467 1473 1465 1450 1441 1433 1434 1444 1451 1458 1464 1471
1482 1485 1490 1492 1492 1496 1501 1483 1470 1464 1461 1461 1457 1451 1452 1448 1454 1457 1458 1452 1452 1457 1454 1453 1461 1450 1452 1459 1460 1464 1463 1474 1470 1493 1483 1462 1453 1448 1452 1453 1455 1460 1463 1464 1469
1480 1480 1482 1487 1491 1495 1486 1473 1469 1465 1468 1469 1466 1458 1454 1455 1455 1457 1453 1458 1462 1463 1463 1461 1460 1459 1454 1473 1465 1462 1464 1465 1467 1470 1476 1475 1460 1459 1464 1461 1462 1466 1470 1470 1462
1475 1477 1478 1483 1488 1486 1476 1469 1469 1466 1469 1468 1471 1469 1466 1461 1465 1464 1463 1467 1468 1470 1470 1466 1465 1467 1460 1455 1454 1459 1466 1465 1479 1478 1485 1488 1482 1455 1461 1464 1469 1470 1470 1469 1473
1466 1469 1472 1477 1474 1474 1471 1468 1469 1467 1466 1466 1470 1469 1467 1468 1473 1468 1465 1472 1474 1476 1473 1475 1472 1478 1469 1463 1456 1457 1458 1458 1457 1458 1464 1473 1461 1451 1453 1456 1460 1462 1467 1467 1462
1460 1462 1462 1467 1465 1463 1463 1465 1462 1464 1462 1466 1466 1465 1466 1469 1469 1472 1470 1469 1474 1477 1479 1480 1475 1474 1475 1466 1462 1466 1462 1458 1456 1469 1466 1462 1460 1452 1452 1450 1451 1454 1460 1462 1466
1443 1445 1445 1454 1457 1456 1458 1458 1457 1456 1461 1464 1466 1464 1464 1470 1470 1472 1472 1470 1471 1473 1476 1479 1479 1475 1472 1466 1464 1462 1458 1453 1452 1451 1461 1454 1448 1442 1437 1439 1440 1444 1449 1455 1461
1435 1438 1437 1437 1451 1452 1450 1449 1448 1452 1452 1460 1464 1461 1462 1465 1465 1467 1465 1463 1464 1466 1469 1472 1474 1474 1472 1464 1464 1465 1457 1450 1448 1446 1444 1442 1440 1434 1434 1434 1434 1440 1442 1449 1458
1427 1431 1434 1433 1440 1445 1441 1441 1444 1446 1447 1451 1455 1457 1458 1461 1465 1464 1467 1472 1470 1469 1472 1474 1478 1476 1468 1466 1464 1470 1449 1449 1444 1441 1440 1445 1436 1433 1433 1434 1438 1442 1442 1446 1456
Wind_Speed
14 13 14 14 14 14 15 15 17 19 20 21 21 22 23 25 23 20 12 12 15 15 4 11 9 8 12 13 10 12 9 11 12 12 11 6 4 11 3 6 3 1 10 10 8
16 15 15 15 15 16 17 18 19 20 20 22 22 23 23 24 23 16 7 8 3 2 8 8 9 9 11 11 8 8 9 11 9 10 8 4 3 4 1 12 7 8 7 8 8
17 15 16 17 17 19 19 19 19 19 20 21 22 22 21 21 18 1 2 5 6 4 8 10 11 13 15 16 11 14 13 8 4 8 9 9 3 7 3 7 8 7 4 7 5
17 18 19 20 20 19 20 19 18 19 20 21 21 21 17 13 5 7 11 15 11 8 8 11 11 12 14 13 15 7 16 12 11 3 5 6 8 8 8 6 5 5 7 5 5
20 20 21 21 21 20 20 19 18 19 19 20 19 20 16 7 12 13 12 14 7 6 8 10 11 12 11 12 10 10 14 14 6 8 9 10 11 10 12 7 3 8 7 6 5
23 22 23 23 21 20 19 19 18 18 18 17 17 15 10 13 6 7 11 6 6 6 9 7 9 9 10 14 13 16 11 15 13 14 14 12 13 13 13 11 8 8 12 7 6
25 23 23 22 21 18 17 18 17 17 17 16 15 15 11 18 7 13 9 6 5 5 8 6 7 7 6 11 10 11 14 16 20 20 17 12 11 19 17 16 9 10 14 10 6
22 20 20 19 18 17 15 15 16 16 15 15 14 13 10 11 13 15 12 10 11 9 9 9 8 11 14 12 11 13 14 14 15 19 8 3 12 18 17 15 11 10 15 11 7
14 15 15 15 15 14 13 14 15 15 15 15 12 5 10 9 7 4 5 3 5 9 10 8 6 11 9 9 10 13 12 13 11 14 9 11 9 7 14 13 11 11 10 13 9
7 10 10 11 13 13 12 12 15 15 14 12 10 9 12 7 6 5 5 6 4 5 6 8 8 8 9 11 11 13 11 11 10 12 10 10 14 14 16 16 19 13 13 13 10
12 12 10 10 11 10 9 8 9 5 10 11 4 10 1 3 6 6 10 7 8 9 9 15 9 12 17 18 16 14 14 15 15 17 14 14 15 13 21 26 23 15 18 15 12
16 15 11 12 10 8 6 4 6 5 12 18 25 26 22 11 6 13 12 10 14 13 16 13 14 16 16 17 7 12 14 16 17 16 15 18 18 17 19 22 23 16 7 15 15
11 11 10 12 9 8 6 8 7 7 9 18 27 26 23 19 15 18 20 17 16 16 17 19 15 6 5 13 11 14 15 16 18 16 15 17 22 21 24 25 12 3 6 15 15
15 13 11 7 5 2 9 7 4 3 6 7 9 7 14 12 10 24 18 22 14 20 19 17 19 21 14 14 15 18 16 15 11 9 11 12 15 15 15 9 9 11 12 13 14
13 11 10 9 3 4 2 4 3 1 6 8 10 11 12 18 5 8 18 13 18 18 11 13 9 10 15 18 16 19 8 7 11 12 13 17 10 19 15 17 17 17 15 15 14
13 12 8 8 14 4 10 6 2 4 10 8 9 10 13 18 12 7 8 11 11 19 18 19 24 9 11 13 9 8 4 11 13 10 12 17 14 18 14 7 18 20 19 18 19
14 11 9 8 1 12 7 4 3 7 5 6 8 14 15 12 15 10 12 12 10 9 15 19 20 15 14 10 9 8 9 5 6 9 11 17 12 10 14 3 13 19 23 21 22
18 15 13 12 5 7 8 5 10 9 20 6 0 11 15 14 14 14 13 13 19 15 10 13 14 20 15 16 14 17 13 7 9 10 14 21 13 9 8 9 18 22 26 25 22
23 19 18 15 13 14 11 8 10 16 7 8 18 11 13 16 10 16 18 15 17 18 13 9 13 14 19 9 13 13 12 14 12 13 12 14 21 18 18 15 10 12 14 25 25
26 21 22 16 13 15 6 19 17 17 8 9 13 9 10 11 9 8 12 7 11 2 9 13 11 7 11 9 12 8 10 8 4 3 12 13 16 8 11 8 4 2 8 18 23
26 10 16 22 18 14 10 13 23 24 16 3 11 14 11 10 10 12 14 7 5 7 6 11 11 12 11 6 14 12 12 11 9 9 11 13 11 8 10 8 4 7 14 25 27
22 6 17 27 10 8 13 11 15 19 21 7 6 8 12 10 14 12 15 7 10 6 6 6 5 9 14 13 14 3 11 11 5 6 2 4 8 13 7 2 13 19 11 20 13
13 9 22 33 8 10 16 16 22 19 20 14 12 11 10 12 8 10 12 10 5 4 4 9 3 7 13 14 16 15 12 17 15 12 15 12 12 10 17 9 5 3 11 13 17
15 4 10 25 19 18 19 19 18 29 16 14 13 10 12 13 14 8 11 6 6 4 4 4 8 13 11 15 16 15 15 16 15 10 13 13 17 19 16 17 14 16 10 6 22
15 6 11 9 14 18 17 15 22 19 27 15 13 17 12 10 12 14 18 17 11 10 5 5 12 15 18 22 21 21 21 22 20 17 17 19 18 19 17 13 7 17 17 12 22
12 6 17 14 25 21 19 20 23 20 17 19 17 15 15 15 15 15 18 18 17 16 16 13 12 12 18 20 19 22 23 24 23 22 23 22 23 20 23 25 12 10 17 18 22
28 22 12 14 16 16 21 25 23 21 19 27 19 13 15 13 10 15 9 8 11 10 6 13 4 11 16 17 17 11 22 21 21 20 19 17 15 15 16 5 8 4 2 19 23
Wind_Direction
258 265 273 280 287 295 303 303 309 313 315 319 320 323 324 322 321 320 308 272 290 295 29 345 302 291 292 271 261 272 268 263 278 329 94 111 194 137 76 278 90 183 56 49 27
255 261 271 278 285 293 300 306 309 311 315 316 319 322 326 326 323 320 287 296 313 116 25 339 328 317 301 266 253 239 261 276 20 17 61 92 307 62 307 210 186 193 82 49 29
252 259 270 277 285 293 298 303 306 309 312 315 318 321 326 329 327 130 24 330 319 305 330 305 300 294 293 280 260 253 246 311 27 32 351 337 344 274 288 282 45 64 53 60 56
251 260 271 278 285 291 297 299 302 304 308 311 317 318 327 329 315 302 293 311 297 289 321 303 293 290 279 274 243 270 272 285 296 71 301 305 296 305 282 275 78 110 96 78 61
253 261 270 278 283 288 292 294 296 299 304 309 317 320 334 296 293 289 292 303 308 311 290 297 292 283 266 288 290 263 269 279 238 267 262 272 262 266 260 221 164 137 117 100 74
253 259 267 271 277 283 287 290 292 296 301 307 314 316 327 280 263 298 295 298 292 276 282 268 280 319 307 283 288 306 306 291 269 252 246 250 253 238 242 196 186 209 152 126 93
254 259 264 269 273 275 282 287 291 294 297 305 310 317 288 257 276 295 277 280 261 270 279 274 280 275 311 286 300 282 281 270 254 243 249 248 260 243 227 164 197 237 159 131 104
246 256 264 264 269 275 279 283 288 289 295 302 305 315 263 275 266 266 272 266 254 240 257 280 274 277 264 264 277 260 261 263 264 212 154 179 284 300 182 166 205 237 158 155 119
245 244 257 271 271 275 280 282 285 289 292 292 300 312 272 267 280 239 220 232 226 240 242 255 265 253 250 239 261 218 250 257 243 169 164 192 284 74 162 206 213 228 216 158 136
239 257 262 270 280 281 283 287 292 286 279 283 259 275 249 229 203 221 233 181 165 179 207 235 226 240 223 232 246 264 261 259 274 173 203 245 253 254 276 251 231 223 250 148 146
252 259 268 279 279 281 283 315 300 267 210 219 261 251 241 191 266 239 204 191 214 204 218 198 216 232 241 236 259 284 276 281 285 300 283 267 268 262 274 269 263 223 229 158 133
251 250 264 272 265 267 259 228 323 306 290 251 258 254 252 261 266 230 202 209 208 221 222 245 228 250 270 277 301 286 275 273 280 277 273 284 283 280 269 263 262 243 109 132 133
237 246 253 268 275 258 228 263 265 306 265 268 242 239 239 228 232 237 214 224 242 229 240 251 248 137 263 274 240 251 259 271 275 286 293 296 278 265 253 254 217 174 210 146 155
251 250 252 246 250 246 251 230 277 287 272 245 200 232 197 205 247 231 227 217 235 237 253 260 260 263 246 242 263 264 273 288 299 286 269 271 286 273 291 195 158 167 173 150 162
237 235 245 196 153 249 216 284 251 122 284 98 125 150 179 188 117 194 206 222 233 231 226 231 231 245 256 260 237 262 290 301 279 275 285 265 260 276 271 267 174 167 167 169 165
214 218 209 210 220 238 245 243 147 230 241 190 134 187 186 213 237 133 188 216 243 242 250 242 269 272 241 257 241 280 279 268 253 250 254 266 253 267 272 336 178 162 171 173 172
206 207 204 167 255 216 200 156 203 234 262 176 179 180 204 190 220 174 186 197 196 195 228 241 233 231 239 240 200 226 246 269 248 233 242 259 273 261 319 180 156 169 172 176 174
209 207 212 199 232 224 157 213 236 230 241 349 318 177 212 214 209 195 198 211 225 230 278 213 219 213 194 227 223 210 225 230 275 279 295 304 285 281 329 88 125 169 176 171 174
208 208 224 211 206 178 205 211 220 236 279 327 231 253 223 240 217 206 221 220 217 219 236 256 255 179 206 186 227 248 251 269 283 284 285 273 274 269 274 245 163 159 172 166 175
202 201 225 213 201 175 214 239 227 258 297 296 273 223 239 219 214 208 242 260 262 282 308 275 279 187 184 230 248 264 294 296 292 265 271 274 278 316 36 33 10 334 242 177 173
201 194 219 200 178 191 219 226 223 252 294 264 282 286 278 287 288 287 263 113 353 266 297 297 279 258 233 188 254 244 232 245 277 280 273 280 271 87 36 332 291 287 293 307 173
191 207 189 189 176 206 234 236 247 261 276 229 298 296 300 303 291 299 297 72 19 22 308 7 320 290 274 269 277 309 290 277 238 252 222 217 259 288 154 351 350 342 285 239 227
200 192 190 185 199 212 236 245 243 246 236 228 232 249 273 266 282 258 265 106 234 275 356 346 242 281 277 270 267 265 259 260 263 246 263 280 273 303 307 253 53 176 285 301 207
185 175 184 197 219 215 221 237 242 238 242 239 250 244 251 240 253 255 259 177 169 245 65 3 270 258 273 285 308 302 289 275 260 267 273 269 286 288 272 277 232 246 277 324 162
186 190 182 179 215 220 230 227 227 230 229 225 242 245 233 227 226 237 244 262 194 202 214 224 258 265 271 271 274 277 283 277 272 271 249 268 266 271 289 295 184 220 229 187 170
188 188 175 202 206 213 220 234 229 221 221 209 224 240 231 242 249 245 242 234 229 217 213 218 244 259 271 274 282 281 275 273 275 277 280 283 282 287 293 297 266 234 227 177 169
200 204 199 212 200 199 216 223 237 230 220 231 214 237 229 248 336 309 330 258 269 283 268 256 236 275 265 275 282 290 259 268 274 275 279 280 293 321 318 4 324 310 203 169 169